Погода в Гойском

Россия / Чеченская Республика     43°05′14″N   45°36′17″E
темп.,
°C
ветер,
м/с
пор.,
м/с
влажн.,
%
обл.,
%
осадки,
мм/ч
давл.,
гПа
погр.,
м
4 декабря, сб
сб400:00+4ююз21470 0.0 101916
03:00+4ююз21455 0.0 102014
06:00+4ююз224315 0.0 102014
09:00+8ююз11375 0.0 102022
12:00+11ссв11284 0.0 1017357
15:00+10св11360 0.0 1017145
18:00+6ю22454 0.0 101717
21:00+6ююз22408 0.0 101526
5 декабря, вс
вс500:00+5ююз223838 0.0 101326
03:00+5ююз3235100 0.0 101227
06:00+5ююз223395 0.0 101121
09:00+8зюз113096 0.0 101217
12:00+10ссв112884 0.0 1011206
15:00+8с1140100 0.0 1013133
18:00+6ююз114897 0.0 101610
21:00+6ююз114567 0.0 101712
6 декабря, пн
пн600:00+6ююз22435 0.0 101721
03:00+6ююз214264 0.0 101915
06:00+5ююз214514 0.0 102014
09:00+7юв12430 0.0 102076
12:00+10св22430 0.0 1019445
15:00+9ссв21555 0.0 1020352
18:00+6ююз117021 0.0 102210
21:00+6ююз215566 0.0 102216
7 декабря, вт
вт700:00+6ююз22540 0.0 102219
03:00+6ююз22590 0.0 102220
06:00+5ююз21590 0.0 102217
09:00+8ююз11470 0.0 102134
12:00+11ссв21410 0.0 1018274
15:00+10св11490 0.0 1017175
18:00+7ююз11570 0.0 101716
21:00+7ююз21490 0.0 101520
8 декабря, ср
ср800:00+6ююз22480 0.0 101327
03:00+6юз22480 0.0 101131
06:00+5юз22460 0.0 101026
09:00+8зюз12420 0.0 100955
12:00+13с133756 0.0 1007462
15:00+11ссв12500 0.0 1006142
18:00+7зюз11690 0.0 100716
21:00+7юз11622 0.0 100811